Location: Vassar Physics Lab
(41.6843°N, 73.8954°W)
Time: 21:37:01
(UTC-04:00)

CZ-4B DEB - Visible Passes

Search period start: 22 October 2014 00:00
Search period end: 01 November 2014 00:00
Orbit: 844 x 863 km, 98.8° (Epoch: 22 October)

Date Brightness Start Highest point End Pass type
(mag) Time Alt. Az. Time Alt. Az. Time Alt. Az.
22 Oct 5.2 04:06:09 10° NNE 04:10:20 43° ENE 04:10:20 43° ENE visible
22 Oct 5.3 05:47:39 10° NNW 05:51:57 24° WNW 05:52:23 23° WNW visible
23 Oct 5.7 03:55:21 10° NNE 03:59:06 34° ENE 03:59:06 34° ENE visible
23 Oct 5.1 05:36:26 10° N 05:41:07 29° WNW 05:41:09 29° WNW visible
24 Oct 6.0 03:44:35 10° NNE 03:47:51 27° ENE 03:47:51 27° ENE visible
24 Oct 4.9 05:25:17 10° N 05:29:54 35° WNW 05:29:54 35° WNW visible
25 Oct 6.4 03:33:55 10° NE 03:36:36 22° ENE 03:36:36 22° ENE visible
25 Oct 4.7 05:14:11 10° N 05:18:39 41° NW 05:18:39 41° NW visible
26 Oct 6.7 03:23:20 10° NE 03:25:21 17° ENE 03:25:21 17° ENE visible
26 Oct 4.6 05:03:07 10° N 05:07:24 46° NNW 05:07:24 46° NNW visible
27 Oct 6.9 03:12:54 10° NE 03:14:06 13° ENE 03:14:06 13° ENE visible
27 Oct 4.7 04:52:05 10° N 04:56:09 48° NNW 04:56:09 48° NNW visible
28 Oct 7.2 03:02:46 10° ENE 03:02:51 10° ENE 03:02:51 10° ENE visible
28 Oct 4.9 04:41:06 10° NNE 04:44:54 46° N 04:44:54 46° N visible
28 Oct 5.9 06:24:23 10° NNW 06:26:30 12° WNW 06:26:57 12° WNW visible
29 Oct 5.2 04:30:08 10° NNE 04:33:39 41° NNE 04:33:39 41° NNE visible
29 Oct 5.8 06:12:41 10° NNW 06:15:42 15° WNW 06:15:42 15° WNW visible
30 Oct 5.5 04:19:13 10° NNE 04:22:23 35° NNE 04:22:23 35° NNE visible
30 Oct 5.6 06:01:14 10° NNW 06:04:26 18° NW 06:04:26 18° NW visible
31 Oct 5.8 04:08:20 10° NNE 04:11:08 29° NE 04:11:08 29° NE visible
31 Oct 5.5 05:49:55 10° NNW 05:53:11 22° NW 05:53:11 22° NW visible
